Hourly Weather Klebow

Today, 30 July, Friday

Time Temperature Precipitation Wind Pressure Humidity
00:00 +19°C° 0 mm 2 mps 745 mmHg 74%
01:00 +18°C° 0 mm 2 mps 745 mmHg 74%
02:00 +19°C° 0 mm 2 mps 745 mmHg 71%
03:00 +19°C° 0 mm 2 mps 745 mmHg 68%
04:00 +19°C° 0 mm 2 mps 745 mmHg 64%
05:00 +20°C° 0 mm 2 mps 745 mmHg 62%
06:00 +21°C° 0 mm 2 mps 745 mmHg 59%
07:00 +22°C° 0 mm 3 mps 745 mmHg 57%
08:00 +24°C° 0 mm 3 mps 744 mmHg 53%
09:00 +25°C° 0 mm 4 mps 744 mmHg 49%
10:00 +26°C° 0 mm 5 mps 744 mmHg 46%
11:00 +27°C° 0 mm 5 mps 744 mmHg 43%
12:00 +28°C° 0 mm 5 mps 744 mmHg 40%
13:00 +28°C° 0 mm 6 mps 744 mmHg 37%
14:00 +28°C° 0 mm 6 mps 743 mmHg 37%
15:00 +28°C° 0 mm 5 mps 743 mmHg 37%
16:00 +28°C° 0 mm 5 mps 743 mmHg 37%
17:00 +27°C° 0 mm 4 mps 743 mmHg 44%
18:00 +25°C° 0 mm 3 mps 743 mmHg 51%
19:00 +23°C° 0 mm 2 mps 743 mmHg 57%
20:00 +23°C° 0 mm 2 mps 743 mmHg 59%
21:00 +21°C° 0 mm 2 mps 743 mmHg 60%
22:00 +20°C° 0 mm 2 mps 743 mmHg 62%
23:00 +20°C° 0 mm 2 mps 743 mmHg 64%

Tomorrow, 31 July, Saturday

Time Temperature Precipitation Wind Pressure Humidity
00:00 +19°C° 0 mm 2 mps 743 mmHg 66%
01:00 +19°C° 0 mm 2 mps 743 mmHg 67%
02:00 +18°C° 0 mm 2 mps 743 mmHg 69%
03:00 +19°C° 0 mm 1 mps 743 mmHg 71%
04:00 +18°C° 0 mm 1 mps 743 mmHg 73%
05:00 +20°C° 0 mm 1 mps 743 mmHg 67%
06:00 +22°C° 0 mm 1 mps 743 mmHg 61%
07:00 +24°C° 0 mm 1 mps 743 mmHg 55%
08:00 +26°C° 0 mm 1 mps 743 mmHg 50%
09:00 +27°C° 0 mm 2 mps 743 mmHg 45%
10:00 +29°C° 0 mm 2 mps 742 mmHg 41%
11:00 +30°C° 0 mm 2 mps 742 mmHg 39%
12:00 +31°C° 0 mm 2 mps 742 mmHg 37%
13:00 +32°C° 0 mm 2 mps 741 mmHg 36%
14:00 +28°C° 3.6 mm 3 mps 741 mmHg 55%
15:00 +25°C° 3.6 mm 4 mps 741 mmHg 74%
16:00 +20°C° 3.6 mm 5 mps 742 mmHg 93%
17:00 +20°C° 2.2 mm 4 mps 742 mmHg 93%
18:00 +19°C° 2.2 mm 3 mps 742 mmHg 94%
19:00 +19°C° 2.2 mm 2 mps 742 mmHg 94%
20:00 +19°C° 0.1 mm 2 mps 742 mmHg 94%
21:00 +18°C° 0.1 mm 2 mps 742 mmHg 94%
22:00 +18°C° 0.1 mm 3 mps 743 mmHg 94%
23:00 +18°C° 0 mm 3 mps 743 mmHg 95%

Day after tomorrow, 1 August, Sunday

Time Temperature Precipitation Wind Pressure Humidity
00:00 +17°C° 0 mm 3 mps 743 mmHg 96%
01:00 +17°C° 0 mm 3 mps 743 mmHg 96%
02:00 +17°C° 0 mm 3 mps 743 mmHg 96%
03:00 +17°C° 0 mm 3 mps 743 mmHg 96%
04:00 +16°C° 0 mm 3 mps 743 mmHg 95%
05:00 +18°C° 0 mm 2 mps 743 mmHg 89%
06:00 +19°C° 0 mm 2 mps 743 mmHg 84%
07:00 +20°C° 0 mm 2 mps 743 mmHg 78%
08:00 +23°C° 0 mm 2 mps 743 mmHg 69%
09:00 +25°C° 0 mm 1 mps 743 mmHg 61%
10:00 +26°C° 0 mm 1 mps 743 mmHg 52%
11:00 +27°C° 0 mm 2 mps 743 mmHg 51%
12:00 +27°C° 0 mm 2 mps 743 mmHg 49%
13:00 +28°C° 0 mm 2 mps 742 mmHg 48%
14:00 +27°C° 0.1 mm 2 mps 742 mmHg 51%
15:00 +27°C° 0.1 mm 2 mps 742 mmHg 55%
16:00 +26°C° 0.1 mm 3 mps 741 mmHg 59%
17:00 +24°C° 1 mm 3 mps 741 mmHg 68%
18:00 +21°C° 1 mm 3 mps 741 mmHg 76%
19:00 +19°C° 1 mm 4 mps 741 mmHg 85%
20:00 +18°C° 2.7 mm 4 mps 741 mmHg 88%
21:00 +17°C° 2.7 mm 3 mps 741 mmHg 91%
22:00 +17°C° 2.7 mm 3 mps 741 mmHg 94%
23:00 +17°C° 0.1 mm 3 mps 741 mmHg 94%

2 August, Monday

Time Temperature Precipitation Wind Pressure Humidity
00:00 +16°C° 0.1 mm 3 mps 741 mmHg 94%
01:00 +16°C° 0.1 mm 3 mps 741 mmHg 94%
02:00 +15°C° 0.5 mm 4 mps 741 mmHg 94%
03:00 +15°C° 0.5 mm 4 mps 741 mmHg 94%
04:00 +14°C° 0.5 mm 5 mps 741 mmHg 94%
05:00 +14°C° 0.8 mm 4 mps 741 mmHg 95%
06:00 +14°C° 0.8 mm 4 mps 742 mmHg 96%
07:00 +14°C° 0.8 mm 4 mps 742 mmHg 96%
08:00 +17°C° 1.1 mm 4 mps 742 mmHg 90%
09:00 +18°C° 1.1 mm 4 mps 743 mmHg 84%
10:00 +19°C° 1.1 mm 5 mps 743 mmHg 77%
11:00 +21°C° 0.1 mm 5 mps 743 mmHg 70%
12:00 +22°C° 0.1 mm 5 mps 743 mmHg 63%
13:00 +23°C° 0.1 mm 5 mps 743 mmHg 57%
14:00 +23°C° 0.1 mm 5 mps 744 mmHg 58%
15:00 +22°C° 0.1 mm 4 mps 744 mmHg 60%
16:00 +22°C° 0.1 mm 4 mps 744 mmHg 61%
17:00 +21°C° 0.1 mm 4 mps 744 mmHg 66%
18:00 +20°C° 0.1 mm 3 mps 744 mmHg 70%
19:00 +19°C° 0.1 mm 3 mps 744 mmHg 75%
20:00 +18°C° 0 mm 3 mps 744 mmHg 79%
21:00 +17°C° 0 mm 3 mps 745 mmHg 83%
22:00 +16°C° 0 mm 3 mps 745 mmHg 87%
23:00 +16°C° 0 mm 3 mps 745 mmHg 88%

3 August, Tuesday

Time Temperature Precipitation Wind Pressure Humidity
00:00 +14°C° 0 mm 3 mps 745 mmHg 89%
01:00 +14°C° 0 mm 3 mps 746 mmHg 89%
02:00 +14°C° 0 mm 3 mps 746 mmHg 90%
03:00 +13°C° 0 mm 3 mps 746 mmHg 90%
04:00 +13°C° 0 mm 3 mps 746 mmHg 90%
05:00 +14°C° 0 mm 4 mps 746 mmHg 83%
06:00 +15°C° 0 mm 4 mps 747 mmHg 75%
07:00 +17°C° 0 mm 5 mps 747 mmHg 67%
08:00 +19°C° 0 mm 5 mps 747 mmHg 61%
09:00 +20°C° 0 mm 6 mps 747 mmHg 55%
10:00 +21°C° 0 mm 6 mps 748 mmHg 49%
11:00 +22°C° 0 mm 6 mps 748 mmHg 46%
12:00 +23°C° 0 mm 6 mps 747 mmHg 44%
13:00 +23°C° 0 mm 6 mps 747 mmHg 42%
14:00 +25°C° 0 mm 5 mps 747 mmHg 42%
15:00 +25°C° 0 mm 5 mps 747 mmHg 41%
16:00 +25°C° 0 mm 4 mps 747 mmHg 41%
17:00 +22°C° 0 mm 4 mps 747 mmHg 47%
18:00 +20°C° 0 mm 3 mps 747 mmHg 53%
19:00 +19°C° 0 mm 2 mps 747 mmHg 59%
20:00 +19°C° 0 mm 1 mps 747 mmHg 60%
21:00 +18°C° 0 mm 1 mps 748 mmHg 60%
22:00 +15°C° 0 mm 0 mps 748 mmHg 61%
23:00 +15°C° 0 mm 0 mps 748 mmHg 62%

4 August, Wednesday

Time Temperature Precipitation Wind Pressure Humidity
00:00 +16°C° 0 mm 1 mps 748 mmHg 63%
01:00 +15°C° 0 mm 1 mps 748 mmHg 64%
02:00 +15°C° 0 mm 1 mps 748 mmHg 65%
03:00 +15°C° 0 mm 1 mps 748 mmHg 67%
04:00 +14°C° 0 mm 1 mps 748 mmHg 68%
05:00 +16°C° 0 mm 2 mps 748 mmHg 64%
06:00 +18°C° 0 mm 2 mps 748 mmHg 61%
07:00 +19°C° 0 mm 2 mps 748 mmHg 57%
08:00 +21°C° 0 mm 3 mps 748 mmHg 53%
09:00 +24°C° 0 mm 3 mps 748 mmHg 49%
10:00 +25°C° 0 mm 4 mps 748 mmHg 45%
11:00 +26°C° 0 mm 3 mps 748 mmHg 45%
12:00 +26°C° 0 mm 3 mps 747 mmHg 45%
13:00 +27°C° 0 mm 3 mps 747 mmHg 45%
14:00 +25°C° 1 mm 3 mps 747 mmHg 57%
15:00 +23°C° 1 mm 2 mps 747 mmHg 69%
16:00 +20°C° 1 mm 2 mps 747 mmHg 81%
17:00 +19°C° 0.5 mm 2 mps 747 mmHg 83%
18:00 +19°C° 0.5 mm 2 mps 747 mmHg 84%
19:00 +19°C° 0.5 mm 2 mps 747 mmHg 86%
20:00 +18°C° 0.1 mm 3 mps 747 mmHg 86%
21:00 +18°C° 0.1 mm 3 mps 747 mmHg 86%
22:00 +18°C° 0.1 mm 3 mps 747 mmHg 86%
23:00 +18°C° 0 mm 3 mps 747 mmHg 86%
Show more